EN

Hourly Weather Grabkowo

Today, 30 September, Wednesday

Time Temperature Precipitation Wind Pressure Humidity
00:00 +13°C° 0 mm 2 mps 755 mmHg 92%
01:00 +13°C° 0 mm 1 mps 755 mmHg 89%
02:00 +13°C° 0 mm 2 mps 755 mmHg 89%
03:00 +13°C° 0 mm 2 mps 754 mmHg 89%
04:00 +14°C° 0 mm 2 mps 754 mmHg 89%
05:00 +14°C° 0 mm 2 mps 754 mmHg 89%
06:00 +14°C° 0 mm 2 mps 754 mmHg 89%
07:00 +14°C° 0 mm 2 mps 755 mmHg 87%
08:00 +16°C° 0 mm 2 mps 754 mmHg 80%
09:00 +17°C° 0 mm 2 mps 754 mmHg 72%
10:00 +18°C° 0 mm 3 mps 754 mmHg 65%
11:00 +18°C° 0 mm 3 mps 754 mmHg 62%
12:00 +19°C° 0 mm 3 mps 754 mmHg 59%
13:00 +19°C° 0 mm 3 mps 754 mmHg 57%
14:00 +18°C° 0 mm 3 mps 754 mmHg 59%
15:00 +17°C° 0 mm 4 mps 754 mmHg 62%
16:00 +17°C° 0 mm 4 mps 753 mmHg 64%
17:00 +14°C° 0 mm 4 mps 753 mmHg 70%
18:00 +13°C° 0 mm 3 mps 753 mmHg 76%
19:00 +12°C° 0 mm 3 mps 753 mmHg 82%
20:00 +12°C° 0 mm 3 mps 753 mmHg 85%
21:00 +12°C° 0 mm 2 mps 752 mmHg 87%
22:00 +12°C° 0 mm 2 mps 752 mmHg 90%
23:00 +13°C° 0 mm 2 mps 752 mmHg 91%

Tomorrow, 1 October, Thursday

Time Temperature Precipitation Wind Pressure Humidity
00:00 +13°C° 0 mm 2 mps 752 mmHg 92%
01:00 +13°C° 0 mm 2 mps 752 mmHg 93%
02:00 +13°C° 0 mm 2 mps 751 mmHg 94%
03:00 +12°C° 0 mm 3 mps 750 mmHg 94%
04:00 +12°C° 0 mm 3 mps 750 mmHg 95%
05:00 +13°C° 0 mm 3 mps 750 mmHg 94%
06:00 +13°C° 0 mm 3 mps 749 mmHg 93%
07:00 +13°C° 0 mm 3 mps 749 mmHg 92%
08:00 +14°C° 0 mm 4 mps 749 mmHg 81%
09:00 +15°C° 0 mm 4 mps 749 mmHg 71%
10:00 +17°C° 0 mm 4 mps 748 mmHg 60%
11:00 +18°C° 0 mm 4 mps 748 mmHg 57%
12:00 +19°C° 0 mm 4 mps 748 mmHg 54%
13:00 +19°C° 0 mm 4 mps 748 mmHg 51%
14:00 +19°C° 0 mm 5 mps 747 mmHg 54%
15:00 +17°C° 0 mm 5 mps 747 mmHg 57%
16:00 +16°C° 0 mm 5 mps 747 mmHg 61%
17:00 +17°C° 0 mm 4 mps 747 mmHg 63%
18:00 +15°C° 0 mm 4 mps 747 mmHg 66%
19:00 +14°C° 0 mm 4 mps 747 mmHg 69%
20:00 +14°C° 0 mm 3 mps 747 mmHg 69%
21:00 +14°C° 0 mm 3 mps 747 mmHg 70%
22:00 +15°C° 0 mm 2 mps 747 mmHg 70%
23:00 +13°C° 0 mm 3 mps 747 mmHg 74%

Day after tomorrow, 2 October, Friday

Time Temperature Precipitation Wind Pressure Humidity
00:00 +12°C° 0 mm 3 mps 747 mmHg 79%
01:00 +11°C° 0 mm 3 mps 747 mmHg 83%
02:00 +11°C° 0 mm 3 mps 748 mmHg 87%
03:00 +11°C° 0 mm 3 mps 748 mmHg 90%
04:00 +11°C° 0 mm 4 mps 748 mmHg 93%
05:00 +11°C° 0 mm 4 mps 748 mmHg 91%
06:00 +11°C° 0 mm 4 mps 748 mmHg 88%
07:00 +11°C° 0 mm 4 mps 748 mmHg 86%
08:00 +13°C° 0 mm 5 mps 748 mmHg 81%
09:00 +14°C° 0 mm 5 mps 748 mmHg 76%
10:00 +16°C° 0 mm 5 mps 749 mmHg 70%
11:00 +16°C° 0 mm 5 mps 749 mmHg 68%
12:00 +17°C° 0 mm 5 mps 749 mmHg 66%
13:00 +17°C° 0 mm 5 mps 749 mmHg 63%
14:00 +17°C° 0 mm 5 mps 748 mmHg 65%
15:00 +17°C° 0 mm 5 mps 748 mmHg 66%
16:00 +17°C° 0 mm 5 mps 748 mmHg 67%
17:00 +16°C° 0 mm 5 mps 748 mmHg 72%
18:00 +14°C° 0 mm 4 mps 749 mmHg 77%
19:00 +13°C° 0 mm 4 mps 749 mmHg 82%
20:00 +13°C° 0 mm 4 mps 749 mmHg 83%
21:00 +13°C° 0 mm 4 mps 749 mmHg 84%
22:00 +12°C° 0 mm 5 mps 749 mmHg 85%
23:00 +12°C° 0 mm 5 mps 749 mmHg 86%

3 October, Saturday

Time Temperature Precipitation Wind Pressure Humidity
00:00 +12°C° 0 mm 5 mps 748 mmHg 88%
01:00 +12°C° 0 mm 5 mps 748 mmHg 89%
02:00 +12°C° 0 mm 5 mps 748 mmHg 90%
03:00 +10°C° 0 mm 6 mps 748 mmHg 90%
04:00 +10°C° 0 mm 6 mps 748 mmHg 91%
05:00 +10°C° 0 mm 6 mps 747 mmHg 90%
06:00 +11°C° 0 mm 7 mps 747 mmHg 88%
07:00 +11°C° 0 mm 7 mps 747 mmHg 87%
08:00 +12°C° 0 mm 7 mps 747 mmHg 81%
09:00 +13°C° 0 mm 8 mps 747 mmHg 75%
10:00 +16°C° 0 mm 8 mps 746 mmHg 70%
11:00 +17°C° 0 mm 8 mps 746 mmHg 66%
12:00 +17°C° 0 mm 8 mps 746 mmHg 63%
13:00 +18°C° 0 mm 8 mps 745 mmHg 59%
14:00 +18°C° 0 mm 8 mps 745 mmHg 61%
15:00 +18°C° 0 mm 8 mps 745 mmHg 63%
16:00 +18°C° 0 mm 8 mps 745 mmHg 65%
17:00 +18°C° 0 mm 8 mps 744 mmHg 67%
18:00 +18°C° 0 mm 8 mps 744 mmHg 69%
19:00 +17°C° 0 mm 8 mps 744 mmHg 71%
20:00 +17°C° 0 mm 7 mps 744 mmHg 73%
21:00 +16°C° 0 mm 7 mps 744 mmHg 76%
22:00 +16°C° 0 mm 7 mps 743 mmHg 79%
23:00 +16°C° 0 mm 7 mps 743 mmHg 80%

4 October, Sunday

Time Temperature Precipitation Wind Pressure Humidity
00:00 +16°C° 0 mm 7 mps 742 mmHg 81%
01:00 +16°C° 0 mm 7 mps 742 mmHg 81%
02:00 +16°C° 0 mm 7 mps 741 mmHg 81%
03:00 +16°C° 0 mm 8 mps 741 mmHg 81%
04:00 +16°C° 0 mm 8 mps 740 mmHg 81%
05:00 +16°C° 0 mm 8 mps 740 mmHg 79%
06:00 +16°C° 0 mm 8 mps 740 mmHg 77%
07:00 +17°C° 0 mm 8 mps 739 mmHg 75%
08:00 +18°C° 0 mm 8 mps 740 mmHg 70%
09:00 +21°C° 0 mm 8 mps 740 mmHg 65%
10:00 +22°C° 0 mm 7 mps 741 mmHg 59%
11:00 +20°C° 0 mm 6 mps 741 mmHg 65%
12:00 +17°C° 0 mm 6 mps 742 mmHg 71%
13:00 +15°C° 0 mm 5 mps 743 mmHg 77%
14:00 +15°C° 0 mm 4 mps 743 mmHg 74%
15:00 +16°C° 0 mm 3 mps 744 mmHg 71%
16:00 +16°C° 0 mm 3 mps 744 mmHg 68%
17:00 +15°C° 0 mm 2 mps 745 mmHg 74%
18:00 +14°C° 0 mm 1 mps 745 mmHg 79%
19:00 +12°C° 0 mm 0 mps 746 mmHg 85%
20:00 +12°C° 0 mm 1 mps 746 mmHg 86%
21:00 +12°C° 0 mm 1 mps 746 mmHg 87%
22:00 +12°C° 0 mm 1 mps 747 mmHg 88%
23:00 +12°C° 0 mm 1 mps 747 mmHg 89%

5 October, Monday

Time Temperature Precipitation Wind Pressure Humidity
00:00 +11°C° 0 mm 1 mps 747 mmHg 90%
01:00 +10°C° 0 mm 2 mps 747 mmHg 91%
02:00 +10°C° 0 mm 2 mps 746 mmHg 91%
03:00 +10°C° 0 mm 2 mps 746 mmHg 92%
04:00 +10°C° 0 mm 3 mps 746 mmHg 93%
05:00 +10°C° 0 mm 3 mps 746 mmHg 93%
06:00 +11°C° 0 mm 3 mps 746 mmHg 93%
07:00 +12°C° 0 mm 4 mps 745 mmHg 92%
08:00 +13°C° 0 mm 4 mps 745 mmHg 87%
09:00 +15°C° 0 mm 4 mps 745 mmHg 82%
10:00 +17°C° 0 mm 4 mps 745 mmHg 77%
11:00 +18°C° 0.3 mm 4 mps 744 mmHg 72%
12:00 +19°C° 0.3 mm 4 mps 744 mmHg 67%
13:00 +20°C° 0.3 mm 4 mps 743 mmHg 62%
14:00 +19°C° 0.4 mm 4 mps 743 mmHg 66%
15:00 +18°C° 0.4 mm 4 mps 742 mmHg 70%
16:00 +18°C° 0.4 mm 4 mps 742 mmHg 75%
17:00 +17°C° 0.1 mm 4 mps 741 mmHg 80%
18:00 +16°C° 0.1 mm 3 mps 741 mmHg 86%
19:00 +15°C° 0.1 mm 2 mps 741 mmHg 91%
20:00 +14°C° 0 mm 2 mps 741 mmHg 90%
21:00 +14°C° 0 mm 2 mps 740 mmHg 90%
22:00 +14°C° 0 mm 2 mps 740 mmHg 89%
23:00 +14°C° 0.1 mm 2 mps 740 mmHg 90%
Show more

We Need Your Consent

Meteoprog and our Service Providers may store and access personal data such as cookies, device identifiers or other similar technologies on your device and process such data to personalise content and ads, as well as provide social media features and to analyse the traffic.

  • Store and/or access information on your device

    Cookies, device identifiers or other information can be stored or accessed on your device for the purposes indicated above.

  • Personalised ads and content, ad and content measurement, audience insights, and products development

    Ads and content can be personalised based on a profile. More data can be added to better personalise ads and content. Ad and content performance can be measured. Insights about the audience who saw the ads and content can be derived. Such data can be used to develop or improve user’s experience, systems and software.

By clicking ‘I Agree’ you will allow the use of indicated cookies, device identifiers, web beacons or other similar technologies. Your settings can be changed in the browser on your device.

For certain purposes, legitimate interests may be relied on, rather than consent. You can read more about this in our Privacy and Cookie Policy.